Aérodrome :
LOGIN :

S'inscrire | Disclaimer

   EN    FR    IT 

 










Légende :    VFR   VFR Marginal   IFR   IFR Intensif   IFR Très Intensif
Visi : 
Plafond : 
>= 8 km
>= 3000ft
5 à 8 km
1000 à 3000 ft
1500m à 5 km
500 à 1000 ft
800 à 1500m
200 à 500 ft
< 800m
< 200 ft
Symboles :   Orages  Brouillard  Fortes neiges  Fortes précipitations  Vent > 20 kt
SIGMETs :   Divers  Orages  Givrage  Turbulence  Onde Orograph.  Cendres Volcan.






- Altitude de l'aérodrome : 628 ft
- Code IATA : CMR


LFGA - Colmar-Houssen

DERNIER METAR :
  • 051700Z AUTO 32002KT 9999 SCT008 OVC140 03/02 Q0999

METARs EXPIRÉS :
  • 051630Z AUTO 34002KT CAVOK 03/02 Q0999
  • 051600Z AUTO 33003KT 9999 FEW008 OVC140 03/02 Q0999
  • 051530Z AUTO VRB03KT 9999 BKN008 OVC140 03/02 Q0999
  • 051500Z AUTO 33003KT 9999 OVC008 04/02 Q1000
  • 051430Z AUTO VRB02KT 9999 OVC007 04/02 Q0999

TAF N/A



MET'MAP, la Météo Aéronautique d'un coup d'oeil ! - Copyright ORBIFLY Décembre 2007 - Disclaimer

ORBIFLY MET'MAP TEAM :

Programmation & Développement : Alexandra Zaïnal
Sur une idée originale de : Baudouin d'Aumeries
Assistance à la programmation : Marc-Olivier Méhu
Soutien technique & logistique : Manuel Goepfert

Contact : metmap@orbifly.com




SOURCES & CREDITS :

   NOAA